Location: Le Rocchette
(44.3500°N, 7.8333°E)
Time: 08:44:41
(UTC+00:00)

BREEZE-M DEB - Pass Details

Date: 17 November 2019
Orbit: 706 x 35011 km, 45.8° (Epoch: 12 December)

Event Time Altitude Azimuth Distance (km) Brightness Sun altitude
Exits shadow 05:57:34 - 288° (WNW) 5,947 7.3 -5.6°
Reaches altitude 10° 05:59:59 10° 288° (WNW) 4,837 6.9 -5.2°
Maximum altitude 06:08:54 67° 207° (SSW) 979 4.1 -3.7°
Drops below altitude 10° 06:12:49 10° 124° (ESE) 2,176 7.7 -3.1°
Sets 06:14:41 0° 121° (ESE) 3,121 9.4 -2.8°
